FW7297 Weather Reports


time (UTC)temp
C
wind
direction
speed
KPH
gust
KPH
rain 1hr
cm
rain 24hr
cm
rain mn
cm
humidity
%
barometer
mb
20260504032704 7 251 3.2 3.2 0.00 0.08 0.03 81 1017.2
20260504032203 7 242 1.6 3.2 0.00 0.08 0.03 81 1017.2
20260504031704 7 270 1.6 3.2 0.00 0.08 0.03 80 1017.4
20260504031204 8 267 1.6 1.6 0.00 0.08 0.03 79 1017.3
20260504030203 8 275 1.6 3.2 0.00 0.08 0.03 77 1017.4
20260504025203 8 280 1.6 1.6 0.00 0.08 0.03 76 1017.2
20260504024704 8 253 1.6 3.2 0.00 0.08 0.03 75 1017.3
20260504023704 8 257 0.0 3.2 0.00 0.08 0.03 75 1017.3
20260504023206 9 264 1.6 3.2 0.00 0.08 0.03 75 1017.2
20260504022705 9 252 1.6 3.2 0.00 0.08 0.03 74 1017.2
20260504022204 10 257 1.6 3.2 0.00 0.08 0.03 73 1017.1
20260504021705 10 262 1.6 3.2 0.00 0.08 0.03 71 1016.9
20260504020704 10 295 0.0 3.2 0.00 0.08 0.03 68 1016.6
20260504020204 10 290 1.6 3.2 0.00 0.08 0.03 67 1016.6
20260504015704 10 282 1.6 3.2 0.00 0.08 0.03 66 1016.1
20260504014704 11 232 0.0 1.6 0.00 0.08 0.03 64 1016.3
20260504013705 11 282 1.6 3.2 0.00 0.08 0.03 63 1016.0
20260504013205 11 279 1.6 3.2 0.00 0.08 0.03 63 1016.0
20260504012705 11 293 1.6 3.2 0.00 0.08 0.03 62 1016.0
20260504012205 11 295 1.6 3.2 0.00 0.08 0.03 60 1015.9
20260504011705 12 291 1.6 1.6 0.00 0.08 0.03 60 1015.8
20260504011205 12 259 0.0 1.6 0.00 0.08 0.03 59 1015.7
20260504010705 12 262 0.0 3.2 0.00 0.08 0.03 55 1015.8
20260504010204 13 241 1.6 3.2 0.00 0.08 0.03 52 1015.8
20260504005705 13 279 0.0 3.2 0.00 0.08 0.03 51 1015.8
20260504005207 13 284 1.6 3.2 0.00 0.08 0.03 50 1015.8
20260504004704 13 281 1.6 1.6 0.00 0.08 0.03 50 1015.7
20260504004205 14 298 1.6 1.6 0.00 0.08 0.03 50 1015.8
20260504003705 15 305 0.0 1.6 0.00 0.08 0.03 49 1015.5
20260504003205 15 291 0.0 3.2 0.00 0.08 0.03 47 1015.5
20260504002704 15 309 0.0 4.8 0.00 0.08 0.03 46 1015.6
20260504002205 16 316 1.6 4.8 0.00 0.08 0.03 44 1015.6
20260504001205 17 253 4.8 11.3 0.00 0.08 0.03 40 1015.7
20260504000705 17 224 4.8 11.3 0.00 0.08 0.03 39 1015.8
20260504000204 17 225 8.0 11.3 0.00 0.08 0.03 38 1015.4
20260503235206 17 217 4.8 11.3 0.00 0.08 0.03 38 1015.8
20260503234704 17 217 4.8 11.3 0.00 0.08 0.03 37 1015.9
20260503234205 18 230 6.4 11.3 0.00 0.08 0.03 36 1015.8
20260503233704 18 216 8.0 14.5 0.00 0.08 0.03 36 1015.8
20260503233204 18 216 6.4 14.5 0.00 0.08 0.03 35 1016.0
20260503232705 18 222 8.0 14.5 0.00 0.10 0.03 34 1016.1
20260503232205 18 228 8.0 19.3 0.00 0.10 0.03 34 1016.0
20260503231704 18 212 8.0 19.3 0.00 0.10 0.03 34 1016.2
20260503230705 18 245 3.2 12.9 0.00 0.10 0.03 35 1016.2
20260503230204 18 226 8.0 14.5 0.00 0.10 0.03 34 1016.2
20260503225704 18 206 4.8 14.5 0.00 0.10 0.03 35 1016.2
20260503225204 18 216 9.7 16.1 0.00 0.10 0.03 33 1016.2
20260503224705 18 229 9.7 16.1 0.00 0.10 0.03 34 1016.2
20260503224205 19 209 8.0 14.5 0.00 0.10 0.03 33 1016.3
20260503223704 18 254 3.2 19.3 0.00 0.10 0.03 33 1016.3
20260503223204 18 221 6.4 19.3 0.00 0.10 0.03 33 1016.6
20260503222706 18 216 11.3 19.3 0.00 0.10 0.03 33 1016.5
20260503222204 18 210 8.0 16.1 0.00 0.10 0.03 32 1016.5
20260503221705 18 226 6.4 20.9 0.00 0.10 0.03 32 1016.5
20260503220704 19 206 8.0 14.5 0.00 0.10 0.03 33 1016.6
20260503220205 20 220 8.0 14.5 0.00 0.10 0.03 31 1016.7
20260503215705 19 280 3.2 9.7 0.00 0.10 0.03 33 1016.7
20260503215205 20 251 4.8 9.7 0.00 0.10 0.03 32 1016.5
20260503214705 18 267 1.6 12.9 0.00 0.10 0.03 32 1017.0
20260503214205 18 286 4.8 14.5 0.00 0.10 0.03 32 1016.8
20260503213705 18 229 4.8 16.1 0.00 0.10 0.03 34 1016.9
20260503213204 18 210 8.0 16.1 0.00 0.10 0.03 33 1017.1
20260503211705 19 324 4.8 11.3 0.00 0.10 0.03 32 1017.2
20260503211205 19 217 3.2 9.7 0.00 0.10 0.03 32 1017.5
20260503210704 18 229 4.8 20.9 0.00 0.10 0.03 34 1017.4
20260503210204 18 218 8.0 20.9 0.00 0.10 0.03 33 1017.6
20260503205705 19 206 11.3 20.9 0.00 0.10 0.03 32 1017.6
20260503205205 20 207 4.8 8.0 0.00 0.10 0.03 34 1017.5
20260503204705 18 251 3.2 9.7 0.00 0.10 0.03 34 1017.7
20260503204204 18 245 4.8 12.9 0.00 0.10 0.03 34 1017.9
20260503203704 18 58 3.2 14.5 0.00 0.10 0.03 32 1017.9
20260503203204 18 226 9.7 16.1 0.00 0.10 0.03 34 1017.9
20260503202704 18 209 9.7 16.1 0.00 0.10 0.03 34 1018.2
20260503201204 18 217 3.2 12.9 0.00 0.10 0.03 32 1018.5
20260503200706 18 235 8.0 16.1 0.00 0.10 0.03 32 1018.7
20260503200205 18 280 4.8 16.1 0.00 0.10 0.03 32 1018.8
20260503195705 18 218 9.7 16.1 0.00 0.10 0.03 32 1019.0
20260503194704 18 220 6.4 14.5 0.00 0.10 0.03 30 1019.0
20260503194205 18 215 9.7 14.5 0.00 0.10 0.03 30 1019.1
20260503193704 18 236 4.8 16.1 0.00 0.10 0.03 31 1019.2
20260503193205 18 213 8.0 16.1 0.00 0.10 0.03 33 1019.2
20260503192705 18 238 8.0 11.3 0.00 0.10 0.03 33 1019.3
20260503192205 17 89 3.2 14.5 0.00 0.10 0.03 33 1019.5
20260503191705 17 249 8.0 20.9 0.00 0.10 0.03 35 1019.6
20260503191204 17 214 8.0 20.9 0.00 0.10 0.03 33 1019.6
20260503190705 17 274 6.4 16.1 0.00 0.10 0.03 35 1019.7
20260503185704 16 182 6.4 14.5 0.00 0.10 0.03 35 1019.8
20260503185204 17 234 8.0 14.5 0.00 0.10 0.03 35 1019.9
20260503184705 17 207 9.7 12.9 0.00 0.10 0.03 35 1019.8
20260503184204 16 154 4.8 11.3 0.00 0.10 0.03 35 1020.0
20260503183705 17 297 4.8 11.3 0.00 0.10 0.03 35 1019.9
20260503183204 17 262 6.4 11.3 0.00 0.10 0.03 36 1020.1
20260503182704 17 268 6.4 19.3 0.00 0.10 0.03 37 1020.2
20260503182204 17 258 8.0 19.3 0.00 0.10 0.03 36 1020.1
20260503181705 17 241 6.4 11.3 0.00 0.10 0.03 37 1020.1
20260503181205 16 230 4.8 12.9 0.00 0.10 0.03 38 1020.3
20260503180704 16 247 8.0 12.9 0.00 0.10 0.03 35 1020.4
20260503180204 16 286 3.2 19.3 0.00 0.10 0.03 36 1020.6
20260503175704 16 218 4.8 19.3 0.00 0.10 0.03 37 1020.5
20260503175204 16 217 9.7 19.3 0.00 0.10 0.03 36 1020.6
20260503174205 16 186 4.8 12.9 0.00 0.10 0.03 37 1020.5
20260503173204 16 194 8.0 16.1 0.00 0.10 0.03 34 1020.8
20260503172705 16 233 3.2 11.3 0.00 0.10 0.03 35 1020.9
20260503172205 16 233 8.0 11.3 0.00 0.10 0.03 37 1020.9
20260503171705 15 274 3.2 9.7 0.00 0.10 0.03 36 1021.1
20260503171204 15 132 4.8 14.5 0.00 0.10 0.03 35 1021.2
20260503170705 15 288 3.2 14.5 0.00 0.10 0.03 37 1021.3
20260503170205 15 325 4.8 16.1 0.00 0.10 0.03 37 1021.5
20260503150204 12 22 3.2 9.7 0.00 0.10 0.03 49 1022.5
20260503140204 10 108 3.2 8.0 0.03 0.10 0.03 75 1022.8
20260503131206 7 174 3.2 4.8 0.00 0.08 0.00 97 1023.1
20260503130704 6 230 3.2 4.8 0.00 0.08 0.00 97 1023.1
20260503120204 3 224 1.6 3.2 0.00 0.10 0.00 96 1023.0
20260503110704 0 261 1.6 3.2 0.00 0.10 0.00 97 1022.5
20260503110204 0 249 1.6 4.8 0.00 0.10 0.00 97 1022.4
20260503100205 0 255 1.6 3.2 0.00 0.10 0.00 97 1022.0
20260503080204 2 242 3.2 4.8 0.00 0.10 0.00 97 1021.6
20260503072704 2 254 1.6 4.8 0.00 0.10 0.00 96 1021.5
20260503072204 2 244 3.2 4.8 0.00 0.10 0.00 96 1021.8
20260503071204 2 263 3.2 4.8 0.00 0.10 0.00 96 1021.4
20260503070704 2 266 3.2 4.8 0.00 0.10 0.00 96 1021.3
20260503070204 2 297 3.2 4.8 0.00 0.10 0.00 96 1021.3
20260503060204 3 243 1.6 4.8 0.00 0.10 0.00 96 1021.5
20260503054704 3 245 1.6 3.2 0.00 0.10 0.05 96 1021.0
20260503053704 3 260 1.6 4.8 0.00 0.10 0.05 96 1021.1
20260503052703 3 273 1.6 3.2 0.00 0.10 0.05 96 1021.2
20260503052204 3 256 1.6 3.2 0.00 0.10 0.05 96 1021.2
20260503051704 4 274 1.6 3.2 0.00 0.10 0.05 96 1021.1
20260503051204 4 272 1.6 3.2 0.00 0.10 0.05 96 1020.9
20260503050204 5 259 3.2 4.8 0.00 0.10 0.05 96 1021.0
20260503045705 5 254 3.2 4.8 0.00 0.08 0.05 96 1021.0
20260503045204 5 259 3.2 4.8 0.00 0.08 0.05 95 1020.8
20260503044703 5 271 3.2 3.2 0.00 0.08 0.05 95 1020.8
20260503044203 5 276 3.2 4.8 0.00 0.08 0.05 95 1020.7
20260503042704 5 250 4.8 4.8 0.00 0.08 0.05 95 1020.6
20260503042203 5 241 3.2 4.8 0.00 0.08 0.05 95 1020.7
20260503041204 5 271 1.6 3.2 0.00 0.08 0.05 95 1020.7
20260503040704 5 271 3.2 3.2 0.00 0.08 0.05 95 1020.7
20260503040205 5 256 3.2 3.2 0.00 0.08 0.05 95 1020.8
20260503035706 5 227 3.2 3.2 0.00 0.08 0.05 95 1020.7
20260503035204 5 253 1.6 3.2 0.00 0.08 0.05 94 1020.7
20260503034703 5 267 1.6 3.2 0.00 0.08 0.05 94 1020.5
20260503034205 5 270 1.6 3.2 0.00 0.08 0.05 94 1020.6
20260503033703 5 276 1.6 3.2 0.00 0.08 0.05 94 1020.5
20260503033204 5 262 1.6 3.2 0.00 0.08 0.05 94 1020.4